ITY1430 LIMF-LIRF

Flight info

Callsign ITY1430
Flight time N/A
Altitude 19000
Route LAGEN L50 ANAKI/N0439F350 DCT BAKRO DCT ELB/N0435F340 DCT ELKAP
Aircraft A320/M-SDE3FGHIRWY/LB1

Departure

Time 2026-04-28 16:27
Airport Turin Airport (LIMF)

Arrival

Time N/A
Airport Rome–Fiumicino Leonardo da Vinci International Airport (LIRF)
Time Latitude Longitude Altitude Speed Heading
2026-04-28 16:07 45.19617 7.64477 990 ft 0 kts 248°
2026-04-28 16:18 45.19620 7.64486 990 ft 2 kts 244°
2026-04-28 16:19 45.19627 7.64505 995 ft 2 kts 232°
2026-04-28 16:19 45.19637 7.64521 995 ft 2 kts 221°
2026-04-28 16:19 45.19646 7.64531 995 ft 0 kts 213°
2026-04-28 16:23 45.19645 7.64531 995 ft 0 kts 213°
2026-04-28 16:23 45.19645 7.64530 995 ft 0 kts 213°
2026-04-28 16:24 45.19629 7.64516 995 ft 13 kts 213°
2026-04-28 16:24 45.19602 7.64491 994 ft 6 kts 213°
2026-04-28 16:24 45.19588 7.64488 991 ft 6 kts 171°
2026-04-28 16:24 45.19514 7.64545 989 ft 16 kts 150°
2026-04-28 16:25 45.19411 7.64628 989 ft 18 kts 139°
2026-04-28 16:25 45.19293 7.64672 986 ft 19 kts 189°
2026-04-28 16:25 45.19166 7.64663 985 ft 19 kts 181°
2026-04-28 16:25 45.19029 7.64654 991 ft 21 kts 182°
2026-04-28 16:26 45.18886 7.64645 985 ft 21 kts 182°
2026-04-28 16:26 45.18789 7.64705 985 ft 14 kts 85°
2026-04-28 16:26 45.18800 7.64852 981 ft 16 kts 64°
2026-04-28 16:26 45.18892 7.64888 981 ft 14 kts
2026-04-28 16:27 45.19138 7.64909 984 ft 75 kts
2026-04-28 16:27 45.19935 7.64962 985 ft 150 kts
2026-04-28 16:27 45.22206 7.65107 2299 ft 175 kts
2026-04-28 16:28 45.23422 7.65222 3073 ft 182 kts
2026-04-28 16:28 45.24284 7.65276 3456 ft 193 kts
2026-04-28 16:28 45.26127 7.65322 4480 ft 200 kts
2026-04-28 16:28 45.27517 7.65302 5427 ft 199 kts
2026-04-28 16:29 45.30020 7.66818 6970 ft 209 kts 49°
2026-04-28 16:29 45.30916 7.70722 8448 ft 217 kts 99°
2026-04-28 16:30 45.30437 7.72731 9276 ft 217 kts 124°
2026-04-28 16:30 45.29436 7.74318 10102 ft 215 kts 140°
2026-04-28 16:30 45.28317 7.75712 10909 ft 214 kts 141°
2026-04-28 16:30 45.27178 7.77105 11647 ft 217 kts 142°
2026-04-28 16:31 45.26052 7.78586 12320 ft 225 kts 134°
2026-04-28 16:31 45.25090 7.80367 13011 ft 231 kts 125°
2026-04-28 16:31 45.24236 7.82317 13768 ft 233 kts 126°
2026-04-28 16:31 45.23348 7.84263 14412 ft 237 kts 127°
2026-04-28 16:32 45.22412 7.86207 15013 ft 241 kts 129°
2026-04-28 16:32 45.20396 7.90092 16204 ft 248 kts 131°
2026-04-28 16:32 45.19323 7.92014 16804 ft 252 kts 133°
2026-04-28 16:33 45.18195 7.93943 17391 ft 256 kts 135°
2026-04-28 16:33 45.17819 7.94566 17576 ft 257 kts 135°
2026-04-28 16:33 45.15818 7.97739 18516 ft 263 kts 137°
2026-04-28 16:33 45.14542 7.99643 19055 ft 264 kts 139°
2026-04-28 16:34 45.13243 8.01488 19591 ft 264 kts 141°
2026-04-28 16:34 45.11888 8.03189 20097 ft 265 kts 145°
2026-04-28 16:34 45.11134 8.04038 20379 ft 265 kts 148°